Location: *
(57.8420°S, 159.8600°W)
Time: 12:35:46
(UTC+00:00)

ERS-2 - Pass Details

Date: 18 May 2021
Orbit: 491 x 496 km, 98.5° (Epoch: 22 June)

Event Time Altitude Azimuth Distance (km) Brightness Sun altitude
Rises 04:04:29 0° 43° (NE) 2,599 5.5 -12.4°
Reaches altitude 10° 04:06:39 10° 52° (NE) 1,723 4.5 -12.7°
Maximum altitude 04:10:03 35° 118° (ESE) 846 2.7 -13.1°
Drops below altitude 10° 04:13:29 10° 184° (S) 1,746 4.8 -13.6°
Sets 04:15:42 0° 192° (SSW) 2,639 5.8 -13.9°
